"Pseudo-MPEC" for LA0AgiM

Created 2025 Nov 9 8:35:04 UT using Find_Orb

Click here for an explanation of pseudo-MPECs

 
 Astrometry: 
     LA0AgiM* C2025 10 22.56864502 49 31.937+01 24 29.45   ~AOHK 19.1 GVNEOCPP07
     LA0AgiM  C2025 10 22.66956302 49 19.164+01 33 53.39   ~AOHK 19.3 GVNEOCPP07
     LA0AgiM  C2025 10 22.68549402 49 17.182+01 35 22.60   ~AOHK 20.6 GVNEOCPP07
     LA0AgiM  C2025 10 22.79932802 49 02.770+01 45 58.68   ~AOHK 20.6 GVNEOCPP07

Station data:
(P07) Space Surveillance Telescope, HEH Station  (S21.895685 E114.089870)
   Australia/WA.  Observers M. Blythe, R. Brungard, P. Festler, T. McVey, J.
   Paige, G. Spitz, L. Banks. Measurers M. Cornell, M. Kotson, R. Rios, J.
   Ruprecht, J. Vaillancourt, J. Varey, H. Viggh, D. Woods. 3.5-m f/1.0
   reflector + CCD.

Orbital elements:  LA0AgiM
   Perihelion 2025 Nov 2.008639 +/- 20.2 TT =  0:12:26.4 (JD 2460981.508639)
Epoch 2025 Oct 23.0 TT = JDT 2460971.5   Earth MOID: 0.2480      AutoNEOCP
M 357.547835782 +/- 5.5             (J2000 ecliptic)
n   0.245004763 +/- 0.149           Peri.    2.030145 +/- 18
a   2.529412716 +/- 1.03            Node    37.797182 +/- 0.53
e   0.50955851 +/- 0.178            Incl.   24.618982 +/- 4.1
P   4.02281                H 21.82  G  0.15   U 11.5  SR
q 1.240528934 +/- 0.048    Q 3.818296498 +/- 5.02
From 4 observations 2025 Oct. 22 (5.5 hr); mean residual 0".79
Residuals in arcseconds: 
251022 P07  1.1+  .39-    251022 P07  .67-  .47+    
251022 P07  1.4-  .28+    251022 P07  .94+  .36-    

Ephemerides (geocentric):
Date (UTC) HH   RA             Dec           delta  r     elong  mag " sig PA
---- --------  ------------   ------------  ------ ------ -----  --- --------
2025 11 09 09  02 06 48.173   +30 48 45.01  .26300 1.2432 161.9 20.2 238'  20
2025 11 09 10  02 06 41.619   +30 52 26.27  .26313 1.2432 161.8 20.2 239'  20
2025 11 09 11  02 06 35.065   +30 56 07.25  .26327 1.2432 161.7 20.2 240'  20
2025 11 09 12  02 06 28.513   +30 59 47.93  .26340 1.2433 161.7 20.2 241'  20
2025 11 09 13  02 06 21.962   +31 03 28.33  .26353 1.2433 161.6 20.2 241'  20
2025 11 09 14  02 06 15.413   +31 07 08.44  .26366 1.2433 161.5 20.2 242'  20
2025 11 09 15  02 06 08.865   +31 10 48.26  .26379 1.2434 161.4 20.2 243'  20
2025 11 09 16  02 06 02.318   +31 14 27.78  .26393 1.2434 161.4 20.2 244'  20
2025 11 09 17  02 05 55.773   +31 18 07.02  .26406 1.2434 161.3 20.2 245'  20
2025 11 09 18  02 05 49.229   +31 21 45.96  .26420 1.2435 161.2 20.2 246'  20
2025 11 09 19  02 05 42.687   +31 25 24.61  .26433 1.2435 161.1 20.2 247'  20
2025 11 09 20  02 05 36.147   +31 29 02.97  .26447 1.2435 161.1 20.2 248'  20
2025 11 09 21  02 05 29.608   +31 32 41.04  .26460 1.2436 161.0 20.2 248'  20
2025 11 09 22  02 05 23.070   +31 36 18.81  .26474 1.2436 160.9 20.2 249'  20
2025 11 09 23  02 05 16.535   +31 39 56.29  .26488 1.2436 160.8 20.2 250'  20
2025 11 10 00  02 05 10.001   +31 43 33.47  .26501 1.2437 160.8 20.2 251'  20
2025 11 10 01  02 05 03.469   +31 47 10.35  .26515 1.2437 160.7 20.3 252'  20
2025 11 10 02  02 04 56.938   +31 50 46.94  .26529 1.2437 160.6 20.3 253'  20
2025 11 10 03  02 04 50.409   +31 54 23.24  .26543 1.2437 160.5 20.3 254'  20
2025 11 10 04  02 04 43.882   +31 57 59.23  .26557 1.2438 160.5 20.3 255'  20
2025 11 10 05  02 04 37.357   +32 01 34.93  .26571 1.2438 160.4 20.3 255'  20
2025 11 10 06  02 04 30.834   +32 05 10.33  .26585 1.2438 160.3 20.3 256'  20
2025 11 10 07  02 04 24.313   +32 08 45.43  .26599 1.2439 160.2 20.3 257'  20
2025 11 10 08  02 04 17.794   +32 12 20.23  .26613 1.2439 160.2 20.3 258'  20
2025 11 10 09  02 04 11.276   +32 15 54.73  .26628 1.2439 160.1 20.3 259'  20
2025 11 10 10  02 04 04.761   +32 19 28.93  .26642 1.2440 160.0 20.3 260'  20
2025 11 10 11  02 03 58.247   +32 23 02.83  .26656 1.2440 159.9 20.3 261'  20
2025 11 10 12  02 03 51.736   +32 26 36.43  .26671 1.2441 159.9 20.3 261'  20
2025 11 10 13  02 03 45.227   +32 30 09.73  .26685 1.2441 159.8 20.3 262'  20
2025 11 10 14  02 03 38.720   +32 33 42.72  .26699 1.2441 159.7 20.3 263'  20
2025 11 10 15  02 03 32.215   +32 37 15.41  .26714 1.2442 159.6 20.3 264'  20
2025 11 10 16  02 03 25.713   +32 40 47.80  .26729 1.2442 159.6 20.3 265'  20
2025 11 10 17  02 03 19.212   +32 44 19.89  .26743 1.2442 159.5 20.3 266'  20
2025 11 10 18  02 03 12.714   +32 47 51.67  .26758 1.2443 159.4 20.3 267'  20
2025 11 10 19  02 03 06.218   +32 51 23.15  .26773 1.2443 159.3 20.3 268'  20
2025 11 10 20  02 02 59.725   +32 54 54.32  .26787 1.2443 159.3 20.3 268'  20
2025 11 10 21  02 02 53.233   +32 58 25.19  .26802 1.2444 159.2 20.3 269'  20
2025 11 10 22  02 02 46.745   +33 01 55.75  .26817 1.2444 159.1 20.3 270'  20
2025 11 10 23  02 02 40.258   +33 05 26.00  .26832 1.2444 159.1 20.3 271'  20
2025 11 11 00  02 02 33.774   +33 08 55.95  .26847 1.2445 159.0 20.3 272'  20
2025 11 11 01  02 02 27.293   +33 12 25.59  .26862 1.2445 158.9 20.3 273'  20
2025 11 11 02  02 02 20.814   +33 15 54.93  .26877 1.2446 158.8 20.3 274'  20
2025 11 11 03  02 02 14.338   +33 19 23.95  .26892 1.2446 158.8 20.3 274'  20
2025 11 11 04  02 02 07.864   +33 22 52.67  .26907 1.2446 158.7 20.3 275'  20
2025 11 11 05  02 02 01.393   +33 26 21.08  .26923 1.2447 158.6 20.3 276'  20
2025 11 11 06  02 01 54.924   +33 29 49.18  .26938 1.2447 158.5 20.3 277'  20
2025 11 11 07  02 01 48.459   +33 33 16.98  .26953 1.2447 158.5 20.3 278'  21
2025 11 11 08  02 01 41.996   +33 36 44.46  .26968 1.2448 158.4 20.4 279'  21